Weather History for Port Angeles, WA

Change the Weather History Date:

Friday, August 9, 2013

  Actual Average Record
Temperature  
Mean Temperature 62 °F -  
Max Temperature 71 °F 72 °F 94 °F (1981)
Min Temperature 53 °F 53 °F 43 °F (1959)
Degree Days  
Heating Degree Days 4    
Growing Degree Days 12 (Base 50)    
Moisture  
Dew Point 53 °F    
Average Humidity 88    
Maximum Humidity 100    
Minimum Humidity 57    
Precipitation  
Precipitation 0.00 in - - ()
Sea Level Pressure  
Sea Level Pressure 29.93 in    
Wind  
Wind Speed 7 mph (WNW)    
Max Wind Speed 9 mph    
Max Gust Speed -    
Visibility 6 miles    
Events Fog    
Averages and records for this station are not official NWS values.
T = Trace of Precipitation, MM = Missing Value Source: NWS Daily Summary

Daily Weather History Graph

Daily Weather History Graph

Search for Another Location

Airport:

Trip Planner

Search our weather history database for the weather conditions in past years. The results will help you decide how hot, cold, wet, or windy it might be!

Date:

Astronomy

Aug. 09, 2013 Rise Set
Actual Time 6:00 AM PDT 8:37 PM PDT
Civil Twilight 5:25 AM PDT 9:12 PM PDT
Nautical Twilight 4:41 AM PDT 9:56 PM PDT
Astronomical Twilight 3:48 AM PDT 10:47 PM PDT
Moon 9:11 AM PDT (8/9) 9:28 PM PDT (8/9)
Length of Visible Light 15h 46m
Length of Day
14h 36m
Waxing Crescent, 8% of the Moon is Illuminated
Aug 9
Waxing Crescent
Aug 14
First Quarter
Aug 20
Full
Aug 28
Last Quarter
Sep 5
New

Hourly Weather History & Observations

Time (PDT) Temp. Dew Point Humidity Pressure Visibility Wind Dir Wind Speed Gust Speed Precip Events Conditions
12:53 AM 54.0 °F 53.1 °F 97% 29.98 in 2.0 mi WNW 9.2 mph - N/A   Overcast
1:00 AM 53.1 °F 53.1 °F 100% 29.98 in 1.2 mi WNW 9.2 mph - N/A   Overcast
1:11 AM 54.0 °F 53.1 °F 97% 29.97 in 1.0 mi WNW 9.2 mph - N/A   Overcast
1:53 AM 54.0 °F 53.1 °F 97% 29.98 in 1.5 mi West 5.8 mph - N/A   Overcast
2:53 AM 54.0 °F 53.1 °F 97% 29.97 in 1.5 mi West 8.1 mph - N/A   Overcast
3:13 AM 54.0 °F 53.1 °F 97% 29.97 in 1.0 mi West 6.9 mph - N/A   Mist
3:53 AM 54.0 °F 53.1 °F 97% 29.96 in 1.0 mi West 8.1 mph - N/A   Mist
4:02 AM 54.0 °F 53.1 °F 97% 29.96 in 0.8 mi WNW 5.8 mph - N/A   Mist
4:53 AM 54.0 °F 53.1 °F 97% 29.96 in 0.8 mi West 5.8 mph - N/A   Mist
5:05 AM 53.1 °F 53.1 °F 100% 29.96 in 1.0 mi West 4.6 mph - N/A   Mist
5:23 AM 53.1 °F 53.1 °F 100% 29.96 in 0.8 mi WNW 6.9 mph - N/A   Mist
5:44 AM 53.1 °F 52.0 °F 96% 29.96 in 1.0 mi West 6.9 mph - N/A   Mist
5:53 AM 53.1 °F 52.0 °F 96% 29.96 in 0.8 mi West 4.6 mph - N/A   Mist
6:16 AM 53.1 °F 52.0 °F 96% 29.96 in 0.2 mi WNW 6.9 mph - N/A Fog Fog
6:53 AM 53.1 °F 52.0 °F 96% 29.96 in 0.2 mi WNW 5.8 mph - N/A Fog Fog
7:13 AM 53.1 °F 52.0 °F 96% 29.96 in 0.5 mi WNW 4.6 mph - N/A Fog Fog
7:24 AM 53.1 °F 53.1 °F 100% 29.96 in 0.2 mi WNW 4.6 mph - N/A Fog Fog
7:53 AM 53.1 °F 53.1 °F 100% 29.96 in 1.8 mi WNW 4.6 mph - N/A   Overcast
8:16 AM 54.0 °F 54.0 °F 100% 29.95 in 1.8 mi Calm Calm - N/A   Overcast
8:20 AM 54.0 °F 54.0 °F 100% 29.95 in 4.0 mi Calm Calm - N/A   Overcast
8:32 AM 55.0 °F 54.0 °F 96% 29.95 in 10.0 mi Calm Calm - N/A   Mostly Cloudy
8:42 AM 55.9 °F 54.0 °F 93% 29.95 in 10.0 mi NW 3.5 mph - N/A   Scattered Clouds
8:53 AM 57.9 °F 54.0 °F 87% 29.96 in 10.0 mi NNW 3.5 mph - N/A   Clear
9:53 AM 59.0 °F 53.1 °F 81% 29.95 in 10.0 mi NNE 3.5 mph - N/A   Clear
10:53 AM 63.0 °F 54.0 °F 72% 29.95 in 10.0 mi North 3.5 mph - N/A   Clear
11:53 AM 64.9 °F 53.1 °F 65% 29.94 in 10.0 mi North 5.8 mph - N/A   Clear
12:53 PM 70.0 °F 54.0 °F 57% 29.92 in 10.0 mi North 4.6 mph - N/A   Clear
1:53 PM 70.0 °F 55.0 °F 59% 29.92 in 10.0 mi North 5.8 mph - N/A   Clear
2:53 PM 69.1 °F 54.0 °F 58% 29.91 in 10.0 mi WNW 8.1 mph - N/A   Clear
3:53 PM 64.9 °F 54.0 °F 68% 29.90 in 10.0 mi WNW 5.8 mph - N/A   Clear
4:53 PM 64.0 °F 54.0 °F 70% 29.89 in 10.0 mi WNW 9.2 mph - N/A   Clear
5:53 PM 64.9 °F 55.0 °F 70% 29.87 in 10.0 mi NW 6.9 mph - N/A   Clear
6:53 PM 66.9 °F 55.0 °F 66% 29.86 in 10.0 mi WNW 8.1 mph - N/A   Clear
7:53 PM 64.9 °F 54.0 °F 68% 29.87 in 10.0 mi WNW 9.2 mph - N/A   Clear
8:53 PM 57.9 °F 52.0 °F 81% 29.88 in 10.0 mi WNW 5.8 mph - N/A   Clear
9:53 PM 55.9 °F 53.1 °F 90% 29.89 in 10.0 mi WNW 6.9 mph - N/A   Clear
10:51 PM 55.4 °F 53.6 °F 94% 29.88 in 10.0 mi WNW 8.1 mph - N/A   Partly Cloudy
10:53 PM 55.0 °F 53.1 °F 93% 29.88 in 10.0 mi WNW 9.2 mph - N/A   Scattered Clouds
11:09 PM 55.0 °F 53.1 °F 93% 29.88 in 10.0 mi WNW 8.1 mph - N/A   Mostly Cloudy
11:53 PM 55.0 °F 53.1 °F 93% 29.87 in 10.0 mi WNW 9.2 mph - N/A   Mostly Cloudy